contact:dominique.lefevre@mio.osupytheas.fr, maurice.libes@osupytheas.fr, didier.mallarino@osupytheas.fr
Project:EMSO http://www.emso-fr.org/EMSO-France
Depth: 2436.0 m
Title:EMSO Ligure Ouest : Data MII capteur MICROCAT
DateTime_Computer,Latitude,Longitude,Temperature,Conductivity,Pressure,DateTime_Instrument
DateTime_Computer,Latitude,Longitude,degC,S m-1,dbar,DateTime_Instrument
2020-05-20T00:01:25Z,42.805,6.029,13.2968,4.59978,2469.984,2020-5-20T02:02:07Z
2020-05-20T00:04:28Z,42.805,6.029,13.2967,4.59978,2469.97,2020-5-20T02:05:10Z
2020-05-20T00:07:31Z,42.805,6.029,13.2971,4.59976,2469.937,2020-5-20T02:08:13Z
2020-05-20T00:10:34Z,42.805,6.029,13.2971,4.59978,2469.947,2020-5-20T02:11:17Z
2020-05-20T00:13:38Z,42.805,6.029,13.2971,4.59972,2469.947,2020-5-20T02:14:20Z
2020-05-20T00:16:41Z,42.805,6.029,13.2967,4.59973,2469.96,2020-5-20T02:17:23Z
2020-05-20T00:19:44Z,42.805,6.029,13.2971,4.59973,2469.96,2020-5-20T02:20:27Z
2020-05-20T00:22:48Z,42.805,6.029,13.2968,4.59975,2469.947,2020-5-20T02:23:30Z
2020-05-20T00:25:51Z,42.805,6.029,13.2972,4.59973,2469.97,2020-5-20T02:26:33Z
2020-05-20T00:28:54Z,42.805,6.029,13.2967,4.59974,2469.947,2020-5-20T02:29:36Z
2020-05-20T00:31:57Z,42.805,6.029,13.2967,4.59974,2469.947,2020-5-20T02:32:40Z
2020-05-20T00:35:00Z,42.805,6.029,13.2974,4.59975,2469.923,2020-5-20T02:35:43Z
2020-05-20T00:38:04Z,42.805,6.029,13.2968,4.59973,2469.984,2020-5-20T02:38:46Z
2020-05-20T00:41:07Z,42.805,6.029,13.2970,4.59973,2469.947,2020-5-20T02:41:49Z
2020-05-20T00:44:10Z,42.805,6.029,13.2972,4.59972,2469.947,2020-5-20T02:44:52Z
2020-05-20T00:47:13Z,42.805,6.029,13.2976,4.59981,2469.947,2020-5-20T02:47:56Z
2020-05-20T00:50:17Z,42.805,6.029,13.2975,4.59975,2469.947,2020-5-20T02:50:59Z
2020-05-20T00:53:20Z,42.805,6.029,13.2972,4.59976,2469.947,2020-5-20T02:54:02Z
2020-05-20T00:56:23Z,42.805,6.029,13.2972,4.59981,2469.947,2020-5-20T02:57:05Z
2020-05-20T00:59:24Z,42.805,6.029,13.2973,4.59973,2469.914,2020-5-20T03:00:07Z
2020-05-20T01:28:05Z,42.805,6.029,13.2972,4.59971,2469.984,2020-5-20T03:28:47Z
2020-05-20T01:59:00Z,42.805,6.029,13.2972,4.59976,2469.993,2020-5-20T03:59:42Z
2020-05-20T02:02:03Z,42.805,6.029,13.2973,4.60000,2469.993,2020-5-20T04:02:45Z
2020-05-20T02:05:06Z,42.805,6.029,13.2972,4.59995,2469.984,2020-5-20T04:05:49Z
2020-05-20T02:08:10Z,42.805,6.029,13.2965,4.59990,2470.007,2020-5-20T04:08:52Z
2020-05-20T02:11:13Z,42.805,6.029,13.2972,4.59997,2469.947,2020-5-20T04:11:55Z
2020-05-20T02:14:16Z,42.805,6.029,13.2974,4.60012,2470.007,2020-5-20T04:14:58Z
2020-05-20T02:17:19Z,42.805,6.029,13.2970,4.59999,2470.03,2020-5-20T04:18:02Z
2020-05-20T02:20:22Z,42.805,6.029,13.2969,4.59996,2469.993,2020-5-20T04:21:05Z
2020-05-20T02:23:26Z,42.805,6.029,13.2971,4.60000,2469.984,2020-5-20T04:24:08Z
2020-05-20T02:26:29Z,42.805,6.029,13.2971,4.59993,2470.007,2020-5-20T04:27:11Z
2020-05-20T02:29:32Z,42.805,6.029,13.2972,4.59986,2469.993,2020-5-20T04:30:14Z
2020-05-20T02:32:35Z,42.805,6.029,13.2974,4.59991,2469.984,2020-5-20T04:33:18Z
2020-05-20T02:35:39Z,42.805,6.029,13.2974,4.59994,2469.993,2020-5-20T04:36:21Z
2020-05-20T02:38:42Z,42.805,6.029,13.2968,4.60001,2469.993,2020-5-20T04:39:24Z
2020-05-20T02:41:45Z,42.805,6.029,13.2968,4.59995,2469.993,2020-5-20T04:42:27Z
2020-05-20T02:44:48Z,42.805,6.029,13.2969,4.59986,2470.03,2020-5-20T04:45:31Z
2020-05-20T02:47:51Z,42.805,6.029,13.2971,4.59993,2469.984,2020-5-20T04:48:34Z
2020-05-20T02:50:55Z,42.805,6.029,13.2967,4.59991,2469.993,2020-5-20T04:51:37Z
2020-05-20T02:53:58Z,42.805,6.029,13.2970,4.60001,2469.993,2020-5-20T04:54:40Z
2020-05-20T02:57:01Z,42.805,6.029,13.2969,4.59993,2469.993,2020-5-20T04:57:43Z
2020-05-20T03:00:04Z,42.805,6.029,13.2973,4.59998,2470.017,2020-5-20T05:00:47Z
2020-05-20T03:03:08Z,42.805,6.029,13.2971,4.59999,2469.993,2020-5-20T05:03:50Z
2020-05-20T03:06:11Z,42.805,6.029,13.2970,4.60009,2469.993,2020-5-20T05:06:53Z
2020-05-20T03:09:14Z,42.805,6.029,13.2968,4.60010,2470.053,2020-5-20T05:09:56Z
2020-05-20T03:12:17Z,42.805,6.029,13.2969,4.59995,2469.993,2020-5-20T05:13:00Z
2020-05-20T03:15:21Z,42.805,6.029,13.2974,4.59994,2470.04,2020-5-20T05:16:03Z
2020-05-20T03:18:24Z,42.805,6.029,13.2970,4.59994,2470.03,2020-5-20T05:19:06Z
2020-05-20T03:21:27Z,42.805,6.029,13.2970,4.59992,2470.017,2020-5-20T05:22:09Z
2020-05-20T03:24:30Z,42.805,6.029,13.2966,4.59996,2469.993,2020-5-20T05:25:13Z
2020-05-20T03:27:34Z,42.805,6.029,13.2972,4.60005,2470.053,2020-5-20T05:28:16Z
2020-05-20T03:30:37Z,42.805,6.029,13.2970,4.59986,2470.017,2020-5-20T05:31:19Z
2020-05-20T03:33:40Z,42.805,6.029,13.2972,4.59994,2470.053,2020-5-20T05:34:22Z
2020-05-20T03:36:43Z,42.805,6.029,13.2975,4.59988,2470.017,2020-5-20T05:37:26Z
2020-05-20T03:39:47Z,42.805,6.029,13.2974,4.59989,2470.04,2020-5-20T05:40:29Z
2020-05-20T03:42:50Z,42.805,6.029,13.2968,4.59986,2470.017,2020-5-20T05:43:32Z
2020-05-20T03:45:53Z,42.805,6.029,13.2970,4.59996,2470.017,2020-5-20T05:46:35Z
2020-05-20T03:48:56Z,42.805,6.029,13.2974,4.59988,2470.017,2020-5-20T05:49:39Z
2020-05-20T03:52:00Z,42.805,6.029,13.2970,4.59988,2470.053,2020-5-20T05:52:42Z
2020-05-20T03:55:03Z,42.805,6.029,13.2968,4.59994,2470.017,2020-5-20T05:55:45Z
2020-05-20T03:58:06Z,42.805,6.029,13.2968,4.59986,2470.053,2020-5-20T05:58:48Z
2020-05-20T04:01:09Z,42.805,6.029,13.2971,4.59985,2470.053,2020-5-20T06:01:52Z
2020-05-20T04:04:13Z,42.805,6.029,13.2966,4.59986,2470.04,2020-5-20T06:04:55Z
2020-05-20T04:07:16Z,42.805,6.029,13.2968,4.59989,2470.03,2020-5-20T06:07:58Z
2020-05-20T04:10:19Z,42.805,6.029,13.2968,4.59988,2470.049,2020-5-20T06:11:01Z
2020-05-20T04:13:22Z,42.805,6.029,13.2970,4.59992,2470.063,2020-5-20T06:14:05Z
2020-05-20T04:16:26Z,42.805,6.029,13.2968,4.59987,2470.026,2020-5-20T06:17:08Z
2020-05-20T04:19:29Z,42.805,6.029,13.2965,4.59988,2470.04,2020-5-20T06:20:11Z
2020-05-20T04:22:32Z,42.805,6.029,13.2971,4.59988,2470.053,2020-5-20T06:23:15Z
2020-05-20T04:25:35Z,42.805,6.029,13.2971,4.59982,2470.03,2020-5-20T06:26:18Z
2020-05-20T04:28:39Z,42.805,6.029,13.2968,4.59986,2470.04,2020-5-20T06:29:21Z
2020-05-20T04:31:42Z,42.805,6.029,13.2971,4.59990,2470.04,2020-5-20T06:32:24Z
2020-05-20T04:34:45Z,42.805,6.029,13.2967,4.59988,2470.04,2020-5-20T06:35:27Z
2020-05-20T04:37:48Z,42.805,6.029,13.2968,4.59988,2470.087,2020-5-20T06:38:31Z
2020-05-20T04:40:51Z,42.805,6.029,13.2975,4.59985,2470.04,2020-5-20T06:41:34Z
2020-05-20T04:43:55Z,42.805,6.029,13.2970,4.59987,2470.04,2020-5-20T06:44:37Z
2020-05-20T04:46:58Z,42.805,6.029,13.2974,4.59984,2470.077,2020-5-20T06:47:40Z
2020-05-20T04:50:01Z,42.805,6.029,13.2970,4.59989,2470.04,2020-5-20T06:50:43Z
2020-05-20T04:53:04Z,42.805,6.029,13.2972,4.59990,2470.1,2020-5-20T06:53:47Z
2020-05-20T04:56:08Z,42.805,6.029,13.2969,4.59996,2470.063,2020-5-20T06:56:50Z
2020-05-20T04:59:11Z,42.805,6.029,13.2970,4.59993,2470.063,2020-5-20T06:59:53Z
2020-05-20T05:02:14Z,42.805,6.029,13.2970,4.59989,2470.04,2020-5-20T07:02:56Z
2020-05-20T05:05:17Z,42.805,6.029,13.2968,4.59984,2470.087,2020-5-20T07:06:00Z
2020-05-20T05:08:20Z,42.805,6.029,13.2971,4.59988,2470.063,2020-5-20T07:09:03Z
2020-05-20T05:11:24Z,42.805,6.029,13.2971,4.59982,2470.077,2020-5-20T07:12:06Z
2020-05-20T05:14:27Z,42.805,6.029,13.2971,4.59986,2470.087,2020-5-20T07:15:09Z
2020-05-20T05:17:30Z,42.805,6.029,13.2972,4.59987,2470.087,2020-5-20T07:18:12Z
2020-05-20T05:20:33Z,42.805,6.029,13.2972,4.59987,2470.087,2020-5-20T07:21:16Z
2020-05-20T05:23:37Z,42.805,6.029,13.2969,4.59984,2470.063,2020-5-20T07:24:19Z
2020-05-20T05:26:40Z,42.805,6.029,13.2973,4.59980,2470.087,2020-5-20T07:27:22Z
2020-05-20T05:29:43Z,42.805,6.029,13.2970,4.59980,2470.087,2020-5-20T07:30:25Z
2020-05-20T05:32:46Z,42.805,6.029,13.2971,4.59981,2470.077,2020-5-20T07:33:29Z
2020-05-20T05:35:50Z,42.805,6.029,13.2968,4.59981,2470.11,2020-5-20T07:36:32Z
2020-05-20T05:38:53Z,42.805,6.029,13.2971,4.59980,2470.11,2020-5-20T07:39:35Z
2020-05-20T05:41:56Z,42.805,6.029,13.2972,4.59983,2470.124,2020-5-20T07:42:38Z
2020-05-20T05:44:59Z,42.805,6.029,13.2967,4.59979,2470.11,2020-5-20T07:45:42Z
2020-05-20T05:48:03Z,42.805,6.029,13.2968,4.59981,2470.087,2020-5-20T07:48:45Z
2020-05-20T05:51:06Z,42.805,6.029,13.2968,4.59978,2470.087,2020-5-20T07:51:48Z
2020-05-20T05:54:09Z,42.805,6.029,13.2968,4.59982,2470.11,2020-5-20T07:54:52Z
2020-05-20T05:57:13Z,42.805,6.029,13.2971,4.59977,2470.1,2020-5-20T07:57:55Z
2020-05-20T06:00:16Z,42.805,6.029,13.2971,4.59980,2470.087,2020-5-20T08:00:58Z
2020-05-20T06:03:19Z,42.805,6.029,13.2972,4.59978,2470.077,2020-5-20T08:04:01Z
2020-05-20T06:06:22Z,42.805,6.029,13.2968,4.59978,2470.063,2020-5-20T08:07:04Z
2020-05-20T06:09:25Z,42.805,6.029,13.2973,4.59978,2470.04,2020-5-20T08:10:08Z
2020-05-20T06:12:29Z,42.805,6.029,13.2972,4.59982,2470.063,2020-5-20T08:13:11Z
2020-05-20T06:15:32Z,42.805,6.029,13.2971,4.59977,2470.087,2020-5-20T08:16:14Z
2020-05-20T06:18:35Z,42.805,6.029,13.2973,4.59981,2470.087,2020-5-20T08:19:18Z
2020-05-20T06:21:38Z,42.805,6.029,13.2971,4.59978,2470.11,2020-5-20T08:22:21Z
2020-05-20T06:24:42Z,42.805,6.029,13.2968,4.59978,2470.1,2020-5-20T08:25:24Z
2020-05-20T06:27:45Z,42.805,6.029,13.2972,4.59976,2470.1,2020-5-20T08:28:27Z
2020-05-20T06:30:48Z,42.805,6.029,13.2967,4.59976,2470.077,2020-5-20T08:31:31Z
2020-05-20T06:33:51Z,42.805,6.029,13.2967,4.59978,2470.063,2020-5-20T08:34:34Z
2020-05-20T06:36:55Z,42.805,6.029,13.2972,4.59979,2470.063,2020-5-20T08:37:37Z
2020-05-20T06:39:58Z,42.805,6.029,13.2972,4.59976,2470.053,2020-5-20T08:40:40Z
2020-05-20T06:43:01Z,42.805,6.029,13.2970,4.59976,2470.063,2020-5-20T08:43:43Z
2020-05-20T06:46:04Z,42.805,6.029,13.2975,4.59978,2470.087,2020-5-20T08:46:47Z
2020-05-20T06:49:08Z,42.805,6.029,13.2971,4.59977,2470.053,2020-5-20T08:49:50Z
2020-05-20T06:52:11Z,42.805,6.029,13.2973,4.59979,2470.087,2020-5-20T08:52:53Z
2020-05-20T06:55:14Z,42.805,6.029,13.2971,4.59978,2470.087,2020-5-20T08:55:56Z
2020-05-20T06:58:17Z,42.805,6.029,13.2969,4.59975,2470.077,2020-5-20T08:59:00Z
2020-05-20T07:01:20Z,42.805,6.029,13.2967,4.59976,2470.077,2020-5-20T09:02:03Z
2020-05-20T07:04:24Z,42.805,6.029,13.2971,4.59978,2470.073,2020-5-20T09:05:06Z
2020-05-20T07:07:27Z,42.805,6.029,13.2972,4.59978,2470.063,2020-5-20T09:08:09Z
2020-05-20T07:10:30Z,42.805,6.029,13.2971,4.59977,2470.063,2020-5-20T09:11:13Z
2020-05-20T07:13:33Z,42.805,6.029,13.2972,4.59976,2470.04,2020-5-20T09:14:16Z
2020-05-20T07:16:37Z,42.805,6.029,13.2968,4.59975,2470.04,2020-5-20T09:17:19Z
2020-05-20T07:19:40Z,42.805,6.029,13.2969,4.59975,2470.053,2020-5-20T09:20:22Z
2020-05-20T07:22:43Z,42.805,6.029,13.2969,4.59975,2470.063,2020-5-20T09:23:25Z
2020-05-20T07:25:46Z,42.805,6.029,13.2970,4.59977,2470.1,2020-5-20T09:26:29Z
2020-05-20T07:28:49Z,42.805,6.029,13.2969,4.59980,2470.077,2020-5-20T09:29:32Z
2020-05-20T07:31:53Z,42.805,6.029,13.2969,4.59978,2470.077,2020-5-20T09:32:35Z
2020-05-20T07:34:56Z,42.805,6.029,13.2968,4.59977,2470.053,2020-5-20T09:35:38Z
2020-05-20T07:37:59Z,42.805,6.029,13.2971,4.59976,2470.017,2020-5-20T09:38:42Z
2020-05-20T07:41:03Z,42.805,6.029,13.2971,4.59975,2470.04,2020-5-20T09:41:45Z
2020-05-20T07:44:06Z,42.805,6.029,13.2971,4.59977,2470.11,2020-5-20T09:44:48Z
2020-05-20T07:47:09Z,42.805,6.029,13.2971,4.59976,2470.1,2020-5-20T09:47:52Z
2020-05-20T07:50:13Z,42.805,6.029,13.2969,4.59974,2470.063,2020-5-20T09:50:55Z
2020-05-20T07:53:16Z,42.805,6.029,13.2970,4.59975,2470.063,2020-5-20T09:53:58Z
2020-05-20T07:56:19Z,42.805,6.029,13.2971,4.59976,2470.017,2020-5-20T09:57:01Z
2020-05-20T07:59:22Z,42.805,6.029,13.2970,4.59976,2470.017,2020-5-20T10:00:05Z
2020-05-20T08:02:25Z,42.805,6.029,13.2970,4.59976,2470.04,2020-5-20T10:03:08Z
2020-05-20T08:05:29Z,42.805,6.029,13.2974,4.59978,2470.063,2020-5-20T10:06:11Z
2020-05-20T08:08:32Z,42.805,6.029,13.2966,4.59975,2470.04,2020-5-20T10:09:14Z
2020-05-20T08:11:35Z,42.805,6.029,13.2971,4.59974,2470.063,2020-5-20T10:12:17Z
2020-05-20T08:14:38Z,42.805,6.029,13.2971,4.59976,2470.007,2020-5-20T10:15:21Z
2020-05-20T08:17:42Z,42.805,6.029,13.2967,4.59979,2470.017,2020-5-20T10:18:24Z
2020-05-20T08:20:45Z,42.805,6.029,13.2972,4.59978,2470.017,2020-5-20T10:21:27Z
2020-05-20T08:23:48Z,42.805,6.029,13.2972,4.59975,2469.97,2020-5-20T10:24:30Z
2020-05-20T08:26:51Z,42.805,6.029,13.2968,4.59976,2470.04,2020-5-20T10:27:34Z
2020-05-20T08:29:54Z,42.805,6.029,13.2968,4.59978,2469.993,2020-5-20T10:30:37Z
2020-05-20T08:32:58Z,42.805,6.029,13.2968,4.59979,2470.04,2020-5-20T10:33:40Z
2020-05-20T08:36:01Z,42.805,6.029,13.2971,4.59981,2470.017,2020-5-20T10:36:43Z
2020-05-20T08:39:04Z,42.805,6.029,13.2971,4.59978,2470.017,2020-5-20T10:39:46Z
2020-05-20T08:42:07Z,42.805,6.029,13.2968,4.59983,2469.993,2020-5-20T10:42:50Z
2020-05-20T08:45:11Z,42.805,6.029,13.2967,4.59982,2470.03,2020-5-20T10:45:53Z
2020-05-20T08:48:14Z,42.805,6.029,13.2967,4.59976,2470.03,2020-5-20T10:48:56Z
2020-05-20T08:51:17Z,42.805,6.029,13.2972,4.59981,2470.03,2020-5-20T10:51:59Z
2020-05-20T08:54:20Z,42.805,6.029,13.2971,4.59976,2469.984,2020-5-20T10:55:03Z
2020-05-20T08:57:23Z,42.805,6.029,13.2968,4.59980,2470.03,2020-5-20T10:58:06Z
2020-05-20T09:00:27Z,42.805,6.029,13.2971,4.59976,2470.03,2020-5-20T11:01:09Z
2020-05-20T09:03:30Z,42.805,6.029,13.2967,4.59976,2470.017,2020-5-20T11:04:12Z
2020-05-20T09:06:33Z,42.805,6.029,13.2968,4.59979,2469.97,2020-5-20T11:07:15Z
2020-05-20T09:09:37Z,42.805,6.029,13.2971,4.59976,2469.993,2020-5-20T11:10:19Z
2020-05-20T09:12:40Z,42.805,6.029,13.2971,4.59980,2469.993,2020-5-20T11:13:22Z
2020-05-20T09:15:43Z,42.805,6.029,13.2971,4.59976,2470.017,2020-5-20T11:16:26Z
2020-05-20T09:18:46Z,42.805,6.029,13.2967,4.59978,2470.017,2020-5-20T11:19:29Z
2020-05-20T09:21:50Z,42.805,6.029,13.2972,4.59978,2470.017,2020-5-20T11:22:32Z
2020-05-20T09:24:53Z,42.805,6.029,13.2968,4.59976,2469.993,2020-5-20T11:25:35Z
2020-05-20T09:27:56Z,42.805,6.029,13.2970,4.59978,2470.017,2020-5-20T11:28:38Z
2020-05-20T09:30:59Z,42.805,6.029,13.2970,4.59978,2470.007,2020-5-20T11:31:42Z
2020-05-20T09:34:03Z,42.805,6.029,13.2971,4.59978,2469.993,2020-5-20T11:34:45Z
2020-05-20T09:37:06Z,42.805,6.029,13.2971,4.59977,2469.97,2020-5-20T11:37:48Z
2020-05-20T09:40:09Z,42.805,6.029,13.2969,4.59974,2469.984,2020-5-20T11:40:51Z
2020-05-20T09:43:12Z,42.805,6.029,13.2970,4.59977,2469.97,2020-5-20T11:43:55Z
2020-05-20T09:46:16Z,42.805,6.029,13.2969,4.59978,2469.993,2020-5-20T11:46:58Z
2020-05-20T09:49:19Z,42.805,6.029,13.2969,4.59976,2469.96,2020-5-20T11:50:01Z
2020-05-20T09:52:22Z,42.805,6.029,13.2973,4.59975,2469.97,2020-5-20T11:53:04Z
2020-05-20T09:55:25Z,42.805,6.029,13.2971,4.59976,2469.97,2020-5-20T11:56:08Z
2020-05-20T09:58:29Z,42.805,6.029,13.2972,4.59976,2469.984,2020-5-20T11:59:11Z
2020-05-20T10:01:32Z,42.805,6.029,13.2968,4.59976,2469.97,2020-5-20T12:02:14Z
2020-05-20T10:04:35Z,42.805,6.029,13.2971,4.59976,2470.007,2020-5-20T12:05:18Z
2020-05-20T10:07:39Z,42.805,6.029,13.2972,4.59976,2469.947,2020-5-20T12:08:21Z
2020-05-20T10:10:42Z,42.805,6.029,13.2967,4.59973,2469.993,2020-5-20T12:11:24Z
2020-05-20T10:13:45Z,42.805,6.029,13.2970,4.59973,2469.947,2020-5-20T12:14:27Z
2020-05-20T10:16:48Z,42.805,6.029,13.2972,4.59979,2469.97,2020-5-20T12:17:31Z
2020-05-20T10:19:52Z,42.805,6.029,13.2970,4.59976,2469.97,2020-5-20T12:20:34Z
2020-05-20T10:22:55Z,42.805,6.029,13.2968,4.59976,2469.97,2020-5-20T12:23:37Z
2020-05-20T10:25:58Z,42.805,6.029,13.2969,4.59977,2469.937,2020-5-20T12:26:41Z
2020-05-20T10:29:01Z,42.805,6.029,13.2967,4.59975,2469.923,2020-5-20T12:29:44Z
2020-05-20T10:32:05Z,42.805,6.029,13.2968,4.59975,2469.96,2020-5-20T12:32:47Z
2020-05-20T10:35:08Z,42.805,6.029,13.2971,4.59973,2469.923,2020-5-20T12:35:50Z
2020-05-20T10:38:11Z,42.805,6.029,13.2971,4.59973,2469.97,2020-5-20T12:38:53Z
2020-05-20T10:41:14Z,42.805,6.029,13.2970,4.59973,2469.923,2020-5-20T12:41:57Z
2020-05-20T10:44:18Z,42.805,6.029,13.2972,4.59975,2469.886,2020-5-20T12:45:00Z
2020-05-20T10:47:21Z,42.805,6.029,13.2969,4.59975,2469.937,2020-5-20T12:48:03Z
2020-05-20T10:50:24Z,42.805,6.029,13.2969,4.59975,2469.923,2020-5-20T12:51:07Z
2020-05-20T10:53:27Z,42.805,6.029,13.2967,4.59973,2469.96,2020-5-20T12:54:10Z
2020-05-20T10:56:31Z,42.805,6.029,13.2970,4.59975,2469.947,2020-5-20T12:57:13Z
2020-05-20T10:59:34Z,42.805,6.029,13.2973,4.59976,2469.937,2020-5-20T13:00:16Z
2020-05-20T11:02:37Z,42.805,6.029,13.2971,4.59974,2469.947,2020-5-20T13:03:19Z
2020-05-20T11:05:40Z,42.805,6.029,13.2967,4.59972,2469.937,2020-5-20T13:06:23Z
2020-05-20T11:08:44Z,42.805,6.029,13.2968,4.59973,2469.96,2020-5-20T13:09:26Z
2020-05-20T11:11:47Z,42.805,6.029,13.2970,4.59976,2469.923,2020-5-20T13:12:29Z
2020-05-20T11:14:50Z,42.805,6.029,13.2969,4.59974,2469.923,2020-5-20T13:15:32Z
2020-05-20T11:17:53Z,42.805,6.029,13.2968,4.59976,2469.937,2020-5-20T13:18:36Z
2020-05-20T11:20:57Z,42.805,6.029,13.2969,4.59975,2469.9,2020-5-20T13:21:39Z
2020-05-20T11:24:00Z,42.805,6.029,13.2971,4.59973,2469.923,2020-5-20T13:24:42Z
2020-05-20T11:27:03Z,42.805,6.029,13.2968,4.59975,2469.937,2020-5-20T13:27:45Z
2020-05-20T11:30:06Z,42.805,6.029,13.2966,4.59975,2469.937,2020-5-20T13:30:49Z
2020-05-20T11:33:10Z,42.805,6.029,13.2968,4.59973,2469.937,2020-5-20T13:33:52Z
2020-05-20T11:36:13Z,42.805,6.029,13.2968,4.59973,2469.947,2020-5-20T13:36:55Z
2020-05-20T11:39:16Z,42.805,6.029,13.2968,4.59973,2469.914,2020-5-20T13:39:59Z
2020-05-20T11:42:20Z,42.805,6.029,13.2971,4.59971,2469.923,2020-5-20T13:43:02Z
2020-05-20T11:45:23Z,42.805,6.029,13.2969,4.59972,2469.947,2020-5-20T13:46:05Z
2020-05-20T11:48:26Z,42.805,6.029,13.2972,4.59971,2469.937,2020-5-20T13:49:09Z
2020-05-20T11:51:30Z,42.805,6.029,13.2968,4.59972,2469.9,2020-5-20T13:52:12Z
2020-05-20T11:54:33Z,42.805,6.029,13.2973,4.59973,2469.923,2020-5-20T13:55:15Z
2020-05-20T11:57:36Z,42.805,6.029,13.2967,4.59974,2469.89,2020-5-20T13:58:19Z
2020-05-20T12:00:39Z,42.805,6.029,13.2968,4.59973,2469.923,2020-5-20T14:01:22Z
2020-05-20T12:03:43Z,42.805,6.029,13.2974,4.59973,2469.923,2020-5-20T14:04:25Z
2020-05-20T12:06:46Z,42.805,6.029,13.2967,4.59972,2469.9,2020-5-20T14:07:28Z
2020-05-20T12:09:49Z,42.805,6.029,13.2971,4.59973,2469.923,2020-5-20T14:10:31Z
2020-05-20T12:12:52Z,42.805,6.029,13.2968,4.59971,2469.96,2020-5-20T14:13:35Z
2020-05-20T12:15:55Z,42.805,6.029,13.2968,4.59970,2469.923,2020-5-20T14:16:38Z
2020-05-20T12:18:59Z,42.805,6.029,13.2967,4.59971,2469.914,2020-5-20T14:19:41Z
2020-05-20T12:22:02Z,42.805,6.029,13.2967,4.59971,2469.923,2020-5-20T14:22:44Z
2020-05-20T12:25:05Z,42.805,6.029,13.2970,4.59970,2469.876,2020-5-20T14:25:48Z
2020-05-20T12:28:09Z,42.805,6.029,13.2967,4.59972,2469.947,2020-5-20T14:28:51Z
2020-05-20T12:31:12Z,42.805,6.029,13.2971,4.59971,2469.9,2020-5-20T14:31:54Z
2020-05-20T12:34:15Z,42.805,6.029,13.2968,4.59970,2469.9,2020-5-20T14:34:57Z
2020-05-20T12:37:18Z,42.805,6.029,13.2969,4.59973,2469.923,2020-5-20T14:38:01Z
2020-05-20T12:40:22Z,42.805,6.029,13.2967,4.59970,2469.9,2020-5-20T14:41:04Z
2020-05-20T12:43:25Z,42.805,6.029,13.2969,4.59971,2469.9,2020-5-20T14:44:07Z
2020-05-20T12:46:28Z,42.805,6.029,13.2968,4.59969,2469.9,2020-5-20T14:47:10Z
2020-05-20T12:49:31Z,42.805,6.029,13.2970,4.59970,2469.9,2020-5-20T14:50:14Z
2020-05-20T12:52:35Z,42.805,6.029,13.2968,4.59971,2469.923,2020-5-20T14:53:17Z
2020-05-20T12:55:38Z,42.805,6.029,13.2968,4.59973,2469.96,2020-5-20T14:56:20Z
2020-05-20T12:58:41Z,42.805,6.029,13.2969,4.59971,2469.937,2020-5-20T14:59:23Z
2020-05-20T13:01:44Z,42.805,6.029,13.2968,4.59971,2469.914,2020-5-20T15:02:27Z
2020-05-20T13:04:47Z,42.805,6.029,13.2964,4.59971,2469.914,2020-5-20T15:05:30Z
2020-05-20T13:07:51Z,42.805,6.029,13.2971,4.59972,2469.947,2020-5-20T15:08:33Z
2020-05-20T13:10:54Z,42.805,6.029,13.2972,4.59972,2469.937,2020-5-20T15:11:36Z
2020-05-20T13:13:57Z,42.805,6.029,13.2970,4.59971,2469.914,2020-5-20T15:14:39Z
2020-05-20T13:17:00Z,42.805,6.029,13.2971,4.59970,2469.947,2020-5-20T15:17:43Z
2020-05-20T13:20:04Z,42.805,6.029,13.2968,4.59974,2469.947,2020-5-20T15:20:46Z
2020-05-20T13:23:07Z,42.805,6.029,13.2968,4.59971,2469.947,2020-5-20T15:23:49Z
2020-05-20T13:26:10Z,42.805,6.029,13.2967,4.59972,2469.923,2020-5-20T15:26:53Z
2020-05-20T13:29:14Z,42.805,6.029,13.2969,4.59975,2469.937,2020-5-20T15:29:56Z
2020-05-20T13:32:17Z,42.805,6.029,13.2971,4.59972,2469.923,2020-5-20T15:32:59Z
2020-05-20T13:35:20Z,42.805,6.029,13.2971,4.59973,2469.923,2020-5-20T15:36:02Z
2020-05-20T13:38:23Z,42.805,6.029,13.2968,4.59973,2469.923,2020-5-20T15:39:06Z
2020-05-20T13:41:26Z,42.805,6.029,13.2971,4.59973,2469.923,2020-5-20T15:42:09Z
2020-05-20T13:44:30Z,42.805,6.029,13.2971,4.59975,2469.96,2020-5-20T15:45:12Z
2020-05-20T13:47:33Z,42.805,6.029,13.2968,4.59973,2469.937,2020-5-20T15:48:15Z
2020-05-20T13:50:36Z,42.805,6.029,13.2968,4.59973,2469.914,2020-5-20T15:51:18Z
2020-05-20T13:53:39Z,42.805,6.029,13.2971,4.59974,2469.96,2020-5-20T15:54:22Z
2020-05-20T13:56:43Z,42.805,6.029,13.2968,4.59975,2469.947,2020-5-20T15:57:25Z
2020-05-20T13:59:46Z,42.805,6.029,13.2967,4.59978,2469.9,2020-5-20T16:00:28Z
2020-05-20T14:02:49Z,42.805,6.029,13.2969,4.59975,2469.96,2020-5-20T16:03:32Z
2020-05-20T14:05:52Z,42.805,6.029,13.2972,4.59976,2469.947,2020-5-20T16:06:35Z
2020-05-20T14:08:56Z,42.805,6.029,13.2970,4.59973,2469.947,2020-5-20T16:09:38Z
2020-05-20T14:11:59Z,42.805,6.029,13.2972,4.59975,2469.97,2020-5-20T16:12:41Z
2020-05-20T14:15:02Z,42.805,6.029,13.2970,4.59974,2469.923,2020-5-20T16:15:44Z
2020-05-20T14:18:05Z,42.805,6.029,13.2973,4.59974,2469.947,2020-5-20T16:18:48Z
2020-05-20T14:21:09Z,42.805,6.029,13.2974,4.59976,2469.96,2020-5-20T16:21:51Z
2020-05-20T14:24:12Z,42.805,6.029,13.2974,4.59975,2469.947,2020-5-20T16:24:54Z
2020-05-20T14:27:15Z,42.805,6.029,13.2976,4.59981,2469.96,2020-5-20T16:27:57Z
2020-05-20T14:30:18Z,42.805,6.029,13.2967,4.59973,2469.947,2020-5-20T16:31:01Z
2020-05-20T14:33:21Z,42.805,6.029,13.2972,4.59976,2469.984,2020-5-20T16:34:04Z
2020-05-20T14:36:25Z,42.805,6.029,13.2969,4.59974,2469.984,2020-5-20T16:37:07Z
2020-05-20T14:39:28Z,42.805,6.029,13.2972,4.59974,2469.97,2020-5-20T16:40:10Z
2020-05-20T14:42:31Z,42.805,6.029,13.2972,4.59973,2469.984,2020-5-20T16:43:13Z
2020-05-20T14:45:34Z,42.805,6.029,13.2970,4.59981,2469.96,2020-5-20T16:46:17Z
2020-05-20T14:48:38Z,42.805,6.029,13.2974,4.59973,2469.97,2020-5-20T16:49:20Z
2020-05-20T14:51:41Z,42.805,6.029,13.2974,4.59974,2469.993,2020-5-20T16:52:23Z
2020-05-20T14:54:44Z,42.805,6.029,13.2971,4.59978,2469.97,2020-5-20T16:55:26Z
2020-05-20T14:57:47Z,42.805,6.029,13.2971,4.59978,2469.97,2020-5-20T16:58:30Z
2020-05-20T15:00:50Z,42.805,6.029,13.2973,4.59974,2469.984,2020-5-20T17:01:33Z
2020-05-20T15:03:54Z,42.805,6.029,13.2973,4.59974,2470.017,2020-5-20T17:04:36Z
2020-05-20T15:06:57Z,42.805,6.029,13.2971,4.59981,2470.007,2020-5-20T17:07:39Z
2020-05-20T15:10:00Z,42.805,6.029,13.2970,4.59984,2469.993,2020-5-20T17:10:43Z
2020-05-20T15:13:04Z,42.805,6.029,13.2976,4.59980,2470.007,2020-5-20T17:13:46Z
2020-05-20T15:16:07Z,42.805,6.029,13.2974,4.59974,2470.007,2020-5-20T17:16:49Z
2020-05-20T15:19:10Z,42.805,6.029,13.2976,4.59975,2469.984,2020-5-20T17:19:53Z
2020-05-20T15:22:14Z,42.805,6.029,13.2974,4.59974,2470.007,2020-5-20T17:22:56Z
2020-05-20T15:25:17Z,42.805,6.029,13.2973,4.59974,2470.03,2020-5-20T17:25:59Z
2020-05-20T15:28:20Z,42.805,6.029,13.2971,4.59975,2470.017,2020-5-20T17:29:02Z
2020-05-20T15:31:23Z,42.805,6.029,13.2975,4.59978,2470.007,2020-5-20T17:32:06Z
2020-05-20T15:34:26Z,42.805,6.029,13.2971,4.59978,2470.007,2020-5-20T17:35:09Z
2020-05-20T15:37:30Z,42.805,6.029,13.2972,4.59976,2470.03,2020-5-20T17:38:12Z
2020-05-20T15:40:33Z,42.805,6.029,13.2974,4.59976,2470.03,2020-5-20T17:41:15Z
2020-05-20T15:43:36Z,42.805,6.029,13.2978,4.59981,2470.017,2020-5-20T17:44:19Z
2020-05-20T15:46:40Z,42.805,6.029,13.2976,4.59976,2470.017,2020-5-20T17:47:22Z
2020-05-20T15:49:43Z,42.805,6.029,13.2974,4.59977,2470.053,2020-5-20T17:50:25Z
2020-05-20T15:52:46Z,42.805,6.029,13.2976,4.59976,2470.017,2020-5-20T17:53:28Z
2020-05-20T15:55:49Z,42.805,6.029,13.2973,4.59981,2470.03,2020-5-20T17:56:32Z
2020-05-20T15:58:52Z,42.805,6.029,13.2971,4.59979,2470.017,2020-5-20T17:59:35Z
2020-05-20T16:01:56Z,42.805,6.029,13.2973,4.59978,2470.04,2020-5-20T18:02:38Z
2020-05-20T16:04:59Z,42.805,6.029,13.2971,4.59978,2470.03,2020-5-20T18:05:41Z
2020-05-20T16:08:02Z,42.805,6.029,13.2971,4.59985,2470.03,2020-5-20T18:08:45Z